Satellite: AAUSAT2
Catalog number: 32788
Epoch time:      09091.82779098
Element set:    0323
Inclination:      097.9497 deg
RA of node:       156.3196 deg
Eccentricity:    0.0014358
Arg of perigee:   283.8086 deg
Mean anomaly:     076.1514 deg
Mean motion:   14.81692443 rev/day
Decay rate:       3.09e-06 rev/day^2
Epoch rev:           05014
Checksum:              336

Satellite: DO-64
Catalog number: 32789
Epoch time:      09091.84808604
Element set:     329
Inclination:      097.9527 deg
RA of node:       156.4570 deg
Eccentricity:    0.0014381
Arg of perigee:   279.7069 deg
Mean anomaly:     080.2503 deg
Mean motion:   14.81651420 rev/day
Decay rate:       1.12e-06 rev/day^2
Epoch rev:            5014
Checksum:              308

Satellite: CO-66
Catalog number: 32791
Epoch time:      09091.61766053
Element set:    0313
Inclination:      097.9521 deg
RA of node:       156.0964 deg
Eccentricity:    0.0015029
Arg of perigee:   281.4956 deg
Mean anomaly:     078.4584 deg
Mean motion:   14.81408279 rev/day
Decay rate:       4.79e-06 rev/day^2
Epoch rev:           05007
Checksum:              332

Satellite: RS-30
Catalog number: 32953
Epoch time:      09091.64407007
Element set:     269
Inclination:      082.5001 deg
RA of node:       304.2232 deg
Eccentricity:    0.0019284
Arg of perigee:   348.6497 deg
Mean anomaly:     011.4147 deg
Mean motion:   12.43000276 rev/day
Decay rate:        1.0e-07 rev/day^2
Epoch rev:            3888
Checksum:              268

/EX





More information about the Keps mailing list